TimeCDT,TemperatureF,Dew PointF,Humidity,Sea Level PressureIn,VisibilityMPH,Wind Direction,Wind SpeedMPH,Gust SpeedMPH,PrecipitationIn,Events,Conditions,WindDirDegrees,DateUTC
12:53 AM,75.0,70.0,84,29.88,10.0,Calm,Calm,-,N/A,,Overcast,0,2013-05-19 05:53:00
1:53 AM,73.9,70.0,87,29.86,9.0,Calm,Calm,-,N/A,,Partly Cloudy,0,2013-05-19 06:53:00
2:53 AM,73.0,70.0,90,29.86,5.0,Calm,Calm,-,N/A,,Clear,0,2013-05-19 07:53:00
3:53 AM,73.0,69.1,87,29.86,4.0,Calm,Calm,-,N/A,,Scattered Clouds,0,2013-05-19 08:53:00
4:19 AM,73.4,69.8,88,29.87,2.5,Calm,Calm,-,N/A,,Clear,0,2013-05-19 09:19:00
4:53 AM,73.0,70.0,90,29.85,2.0,SE,3.5,-,N/A,,Mostly Cloudy,140,2013-05-19 09:53:00
5:25 AM,73.4,71.6,94,29.86,3.0,SSE,4.6,-,N/A,,Overcast,160,2013-05-19 10:25:00
5:53 AM,73.9,71.1,91,29.87,4.0,Calm,Calm,-,N/A,,Overcast,0,2013-05-19 10:53:00
6:08 AM,73.4,71.6,94,29.89,1.8,NE,3.5,-,N/A,,Overcast,40,2013-05-19 11:08:00
6:41 AM,73.4,71.6,94,29.89,2.0,SSE,4.6,-,N/A,,Overcast,160,2013-05-19 11:41:00
7:07 AM,75.2,71.6,89,29.90,3.0,South,4.6,-,N/A,,Overcast,180,2013-05-19 12:07:00
7:53 AM,75.9,71.1,85,29.88,5.0,South,6.9,-,N/A,,Haze,180,2013-05-19 12:53:00
8:53 AM,78.1,71.1,79,29.89,7.0,SSW,12.7,-,N/A,,Partly Cloudy,200,2013-05-19 13:53:00
9:12 AM,78.8,71.6,78,29.91,7.0,SSW,11.5,-,N/A,,Mostly Cloudy,200,2013-05-19 14:12:00
9:53 AM,79.0,72.0,79,29.90,7.0,SW,11.5,-,N/A,,Overcast,220,2013-05-19 14:53:00
10:48 AM,80.6,73.4,79,29.92,6.0,SSW,10.4,-,N/A,,Haze,210,2013-05-19 15:48:00
10:53 AM,81.0,73.0,77,29.90,6.0,SSW,10.4,-,N/A,,Haze,210,2013-05-19 15:53:00
11:53 AM,82.9,73.0,72,29.89,8.0,SW,6.9,-,N/A,,Scattered Clouds,230,2013-05-19 16:53:00
12:53 PM,87.1,72.0,61,29.86,10.0,South,12.7,-,N/A,,Clear,180,2013-05-19 17:53:00
3:53 PM,88.0,64.0,45,29.81,10.0,South,12.7,-,N/A,,Clear,180,2013-05-19 20:53:00
4:53 PM,88.0,64.9,46,29.80,10.0,South,12.7,20.7,N/A,,Clear,180,2013-05-19 21:53:00
5:53 PM,87.1,66.0,49,29.78,10.0,South,12.7,23.0,N/A,,Clear,180,2013-05-19 22:53:00
6:53 PM,84.9,66.9,55,29.77,10.0,South,13.8,-,N/A,,Clear,170,2013-05-19 23:53:00
7:53 PM,82.0,66.9,60,29.78,10.0,South,13.8,21.9,N/A,,Clear,170,2013-05-20 00:53:00
8:53 PM,81.0,66.9,62,29.81,10.0,South,13.8,21.9,N/A,,Clear,180,2013-05-20 01:53:00
9:53 PM,79.0,68.0,69,29.83,10.0,South,11.5,-,N/A,,Clear,180,2013-05-20 02:53:00
11:53 PM,77.0,66.9,71,29.85,10.0,South,10.4,-,N/A,,Clear,180,2013-05-20 04:53:00